Location: Brede
(50.9167°N, 0.6000°E)
Time: 01:21:01
(UTC+00:00)

FALCON 9 DEB - Pass Details

Date: 08 August 2020
Orbit: 427 x 441 km, 53.0° (Epoch: 27 September)

Event Time Altitude Azimuth Distance (km) Brightness Sun altitude
Exits shadow 01:04:15 38° 301° (WNW) 690 4.2 -21.7°
Maximum altitude 01:05:23 64° 8° (N) 496 3.5 -21.7°
Drops below altitude 10° 01:08:52 10° 91° (E) 1,557 6.1 -21.5°
Sets 01:10:59 0° 94° (E) 2,423 7.1 -21.4°
